MDT,Max TemperatureF,Mean TemperatureF,Min TemperatureF,Max Dew PointF,MeanDew PointF,Min DewpointF,Max Humidity, Mean Humidity, Min Humidity, Max Sea Level PressureIn, Mean Sea Level PressureIn, Min Sea Level PressureIn, Max VisibilityMiles, Mean VisibilityMiles, Min VisibilityMiles, Max Wind SpeedMPH, Mean Wind SpeedMPH, Max Gust SpeedMPH,PrecipitationIn, CloudCover, Events, WindDirDegrees
2013-3-1,57,46,36,26,24,19,52,46,29,30.30,30.27,30.24,10,10,10,31,25,41,0.00,6,,232
2013-3-2,57,50,42,28,26,25,51,43,32,30.28,30.08,29.81,10,10,10,39,30,53,0.00,1,,217
2013-3-3,46,34,21,34,23,7,88,67,37,30.01,29.75,29.52,10,6,0,44,25,55,0.04,7,Fog-Rain-Snow,279
2013-3-4,27,18,10,12,8,4,77,61,51,30.43,30.31,30.04,10,10,6,23,14,30,0.00,5,,292
2013-3-5,37,20,3,15,10,-1,84,57,35,30.39,30.21,30.08,10,10,10,16,6,22,0.00,0,,89
2013-3-6,48,32,15,32,22,10,85,66,32,30.05,29.84,29.66,10,10,10,16,6,25,0.00,4,,315
2013-3-7,46,38,30,29,20,12,88,53,25,30.04,29.92,29.72,10,9,2,33,18,51,0.02,3,Snow,265
2013-3-8,46,36,26,28,22,14,85,60,44,30.03,29.95,29.85,10,10,10,10,5,,0.00,7,,276
2013-3-9,42,32,21,21,17,14,88,56,34,30.31,30.18,29.99,10,10,10,17,10,24,0.00,1,,278
2013-3-10,52,41,30,26,13,6,55,33,16,30.30,30.15,30.00,10,10,10,32,20,40,0.00,3,,259
2013-3-11,48,34,19,28,18,7,68,49,20,30.34,30.10,30.03,10,10,10,32,21,40,0.00,4,,278
2013-3-12,51,30,10,24,16,6,84,53,25,30.35,30.21,30.04,10,10,10,34,10,50,0.00,5,,247
2013-3-13,61,54,46,27,25,23,47,36,24,30.10,30.06,30.03,10,10,10,37,25,52,0.00,2,,243
2013-3-14,70,54,37,29,25,21,62,34,17,30.15,30.04,29.87,10,10,10,29,19,37,0.00,1,,252
2013-3-15,60,50,39,26,22,19,53,32,21,30.00,29.90,29.82,10,10,10,31,20,41,0.00,3,,267
2013-3-16,55,42,30,25,20,12,72,43,21,30.00,29.84,29.55,10,10,10,22,10,31,0.00,4,,259
2013-3-17,46,36,26,34,23,8,93,75,36,29.94,29.62,29.46,10,4,0,37,19,46,0.12,7,Fog-Rain-Snow,285
2013-3-18,37,29,21,19,13,8,69,52,36,30.02,29.95,29.84,10,10,9,36,18,45,0.00,5,Snow,267
2013-3-19,43,32,21,22,14,6,81,54,23,30.29,30.18,29.95,10,9,2,23,16,30,0.00,4,Snow,255
2013-3-20,54,36,19,29,21,11,71,53,33,30.17,29.83,29.51,10,10,10,37,17,53,0.00,1,,192
2013-3-21,43,32,21,32,22,8,88,69,27,29.96,29.73,29.61,10,8,2,30,15,38,0.03,7,Snow,274
2013-3-22,32,24,19,19,14,7,93,70,38,30.22,30.02,29.88,10,6,0,17,10,24,0.00,7,Fog-Snow,58
2013-3-23,30,20,10,12,8,2,77,60,32,30.38,30.31,30.23,10,10,3,14,6,18,0.00,6,Snow,295
2013-3-24,35,22,10,12,7,3,81,57,31,30.39,30.35,30.32,10,10,10,13,7,17,0.00,3,,268
2013-3-25,48,28,7,6,3,-1,77,41,14,30.34,30.20,30.00,10,10,10,22,5,30,0.00,0,,238
2013-3-26,54,42,21,17,12,0,72,34,22,30.04,29.96,29.88,10,10,10,21,12,26,0.00,4,,248
2013-3-27,59,38,17,26,19,12,81,53,22,30.06,30.02,29.96,10,10,10,20,5,28,0.00,2,,253
2013-3-28,64,46,30,26,23,19,75,42,19,30.09,30.01,29.94,10,10,10,17,9,23,0.02,2,,275
2013-3-29,61,48,39,38,31,22,68,52,34,30.14,30.08,30.01,10,10,10,24,12,30,0.01,7,,256
2013-3-30,57,46,36,34,26,19,82,49,24,30.21,30.16,30.05,10,10,10,26,13,33,0.00,4,,272
2013-3-31,62,47,33,24,22,19,61,39,24,30.08,30.05,30.00,10,10,10,21,12,26,0.00,0,,329